DW7639 Weather Reports


time (UTC)temp
F
wind
direction
speed
knots
gust
knots
rain 1hr
in
rain 24hr
in
rain mn
in
humidity
%
barometer
mb
20260505140518 68 3 0.9 3.5 0.00 0.00 0.00 51 1015.8
20260505124516 48 55 0.0 1.7 0.00 0.00 0.00 89 1015.8
20260505123536 46 63 0.0 0.9 0.00 0.00 0.00 93 1015.9
20260505122516 44 43 0.0 1.7 0.00 0.00 0.00 94 1015.8
20260505121518 43 54 0.0 0.9 0.00 0.00 0.00 93 1015.7
20260505120517 42 98 0.0 0.0 0.00 0.00 0.00 93 1015.8
20260505115517 41 0.0 0.0 0.00 0.00 0.00 93 1015.7
20260505114517 40 91 0.0 0.9 0.00 0.00 0.00 93 1015.7
20260505113517 40 0.0 0.0 0.00 0.00 0.00 93 1015.9
20260505112517 39 138 0.0 0.9 0.00 0.00 0.00 93 1015.9
20260505111517 39 127 0.0 0.9 0.00 0.00 0.00 93 1015.7
20260505110518 39 73 0.0 0.0 0.00 0.00 0.00 93 1015.6
20260505101536 40 17 0.0 0.0 0.00 0.00 0.00 92 1014.9
20260505100517 40 0.0 0.0 0.00 0.00 0.00 92 1014.8
20260505095537 40 146 0.0 0.9 0.00 0.00 0.00 92 1014.8
20260505094517 40 165 0.0 0.9 0.00 0.00 0.00 92 1014.8
20260505093517 40 159 0.0 0.9 0.00 0.00 0.00 92 1014.8
20260505092517 40 0.0 0.0 0.00 0.00 0.00 92 1014.8
20260505091517 41 135 0.0 0.9 0.00 0.00 0.00 91 1014.9
20260505090517 41 39 0.0 0.0 0.00 0.00 0.00 91 1014.8
20260505085518 41 88 0.0 0.9 0.00 0.00 0.00 91 1014.8
20260505084538 41 10 0.0 0.9 0.00 0.00 0.00 91 1014.8
20260505083519 41 125 0.0 0.9 0.00 0.00 0.00 91 1014.9
20260505082518 42 192 0.0 0.9 0.00 0.00 0.00 90 1014.9
20260505081516 42 111 0.0 1.7 0.00 0.00 0.00 90 1014.6
20260505080515 42 358 0.0 1.7 0.00 0.00 0.00 89 1014.6
20260505075516 42 346 0.0 0.9 0.00 0.00 0.00 89 1014.5
20260505074516 43 138 0.0 1.7 0.00 0.00 0.00 89 1014.4
20260505073517 43 87 0.0 1.7 0.00 0.00 0.00 88 1014.4
20260505072516 43 130 0.0 0.9 0.00 0.00 0.00 88 1014.2
20260505071517 44 25 0.0 1.7 0.00 0.00 0.00 88 1014.1
20260505070517 44 22 0.0 0.9 0.00 0.00 0.00 87 1014.1
20260505065537 45 55 0.0 1.7 0.00 0.00 0.00 87 1014.0
20260505064522 45 145 0.0 0.9 0.00 0.00 0.00 87 1014.0
20260505063518 45 121 0.0 1.7 0.00 0.00 0.00 87 1014.0
20260505062518 46 177 0.9 2.6 0.00 0.00 0.00 86 1014.1
20260505061518 46 94 0.0 1.7 0.00 0.00 0.00 85 1014.0
20260505060518 47 167 0.9 1.7 0.00 0.00 0.00 85 1014.0
20260505055538 47 11 0.0 1.7 0.00 0.00 0.00 84 1014.0
20260505054519 48 153 0.0 0.9 0.00 0.00 0.00 84 1014.0
20260505053519 48 69 0.0 2.6 0.00 0.00 0.00 84 1013.9
20260505052519 48 74 0.9 1.7 0.00 0.00 0.00 83 1013.9
20260505051516 49 53 0.0 1.7 0.00 0.00 0.00 82 1013.8
20260505050521 49 95 0.9 1.7 0.00 0.00 0.00 82 1013.7
20260505041517 51 19 0.9 2.6 0.00 0.00 0.00 81 1013.6
20260505040517 51 40 0.9 2.6 0.00 0.00 0.00 80 1013.5
20260505035517 51 94 0.9 2.6 0.00 0.00 0.00 81 1013.5
20260505034517 51 19 0.9 2.6 0.00 0.00 0.00 81 1013.6
20260505033517 51 130 0.0 1.7 0.00 0.00 0.00 81 1013.6
20260505032517 51 127 0.0 1.7 0.00 0.00 0.00 81 1013.6
20260505031518 51 130 1.7 3.5 0.00 0.00 0.00 81 1013.7
20260505030518 51 108 0.9 2.6 0.00 0.00 0.00 81 1013.7
20260505025518 51 124 0.0 1.7 0.00 0.00 0.00 81 1013.8
20260505024515 51 13 0.9 3.5 0.00 0.00 0.00 81 1013.8
20260505023518 52 22 0.0 1.7 0.00 0.00 0.00 79 1013.8
20260505022516 52 121 0.9 2.6 0.00 0.00 0.00 79 1013.8
20260505021516 52 190 0.0 1.7 0.00 0.00 0.00 78 1013.9
20260505020516 53 134 0.0 0.9 0.00 0.00 0.00 78 1013.9
20260505015537 53 130 0.0 1.7 0.00 0.00 0.00 77 1013.9
20260505014516 53 62 0.0 0.9 0.00 0.00 0.00 77 1013.9
20260505013516 54 138 0.0 1.7 0.00 0.00 0.00 76 1013.8
20260505012517 55 115 0.0 1.7 0.00 0.00 0.00 75 1013.6
20260505011517 56 340 0.0 0.9 0.00 0.00 0.00 73 1013.5
20260505010517 57 14 0.0 0.9 0.00 0.00 0.00 71 1013.3
20260505005518 57 356 0.0 0.9 0.00 0.00 0.00 69 1013.0
20260505004517 59 343 0.0 0.9 0.00 0.00 0.00 70 1012.9
20260505003517 60 121 0.0 0.9 0.00 0.00 0.00 67 1012.8
20260505002537 62 290 0.0 0.9 0.00 0.00 0.00 64 1012.7
20260505001518 63 230 0.0 0.9 0.00 0.00 0.00 61 1012.6
20260505000518 64 358 0.0 1.7 0.00 0.00 0.00 57 1012.6
20260504235516 65 202 0.9 2.6 0.00 0.00 0.00 56 1012.5
20260504234518 67 191 0.9 2.6 0.00 0.00 0.00 54 1012.5
20260504233516 69 119 1.7 5.2 0.00 0.00 0.00 49 1012.4
20260504232516 70 24 0.9 2.6 0.00 0.00 0.00 48 1012.4
20260504231517 71 36 0.9 3.5 0.00 0.00 0.00 44 1012.3
20260504230517 73 177 1.7 4.3 0.00 0.00 0.00 43 1012.3
20260504225517 73 4 0.9 2.6 0.00 0.00 0.00 43 1012.4
20260504224517 73 350 1.7 4.3 0.00 0.00 0.00 43 1012.4
20260504223537 73 348 0.9 2.6 0.00 0.00 0.00 43 1012.4
20260504222537 73 11 1.7 5.2 0.00 0.00 0.00 41 1012.3
20260504221517 73 148 1.7 7.8 0.00 0.00 0.00 41 1012.3
20260504220537 73 40 0.9 3.5 0.00 0.00 0.00 42 1012.4
20260504215518 73 339 1.7 5.2 0.00 0.00 0.00 40 1012.5
20260504214518 73 11 1.7 5.2 0.00 0.00 0.00 41 1012.5
20260504213516 73 18 1.7 5.2 0.00 0.00 0.00 40 1012.5
20260504212516 73 353 2.6 7.0 0.00 0.00 0.00 41 1012.6
20260504211516 74 192 1.7 8.7 0.00 0.00 0.00 40 1012.6
20260504210536 73 343 1.7 4.3 0.00 0.00 0.00 41 1012.6
20260504205516 74 1 1.7 3.5 0.00 0.00 0.00 41 1012.5
20260504204516 74 275 2.6 6.1 0.00 0.00 0.00 42 1012.5
20260504203517 74 20 1.7 4.3 0.00 0.00 0.00 42 1012.5
20260504202536 74 8 1.7 5.2 0.00 0.00 0.00 41 1012.7
20260504201517 73 151 1.7 5.2 0.00 0.00 0.00 42 1012.7
20260504200517 72 6 1.7 4.3 0.00 0.00 0.00 43 1012.8
20260504195556 72 344 1.7 4.3 0.00 0.00 0.00 44 1013.1
20260504194516 72 239 0.0 1.7 0.00 0.00 0.00 45 1013.2
20260504193517 71 1 0.9 2.6 0.00 0.00 0.00 45 1013.5
20260504192517 71 337 0.9 3.5 0.00 0.00 0.00 45 1013.5
20260504191537 72 173 0.9 3.5 0.00 0.00 0.00 44 1013.6
20260504190518 72 340 1.7 5.2 0.00 0.00 0.00 44 1013.8
20260504185518 72 357 0.9 4.3 0.00 0.00 0.00 43 1013.9
20260504184518 72 323 1.7 4.3 0.00 0.00 0.00 43 1014.0
20260504183518 71 16 1.7 6.1 0.00 0.00 0.00 44 1014.0
20260504182538 70 250 1.7 5.2 0.00 0.00 0.00 45 1014.2
20260504181518 69 331 1.7 4.3 0.00 0.00 0.00 48 1014.3
20260504180516 68 348 1.7 4.3 0.00 0.00 0.00 47 1014.3
20260504175516 68 3 0.9 3.5 0.00 0.00 0.00 47 1014.5
20260504174516 68 358 1.7 5.2 0.00 0.00 0.00 47 1014.9
20260504173536 68 141 1.7 3.5 0.00 0.00 0.00 46 1014.9
20260504172516 69 282 0.9 2.6 0.00 0.00 0.00 46 1014.9
20260504171516 70 174 0.9 3.5 0.00 0.00 0.00 44 1014.9
20260504170516 70 278 1.7 6.1 0.00 0.00 0.00 43 1015.1
20260504150536 62 186 1.7 4.3 0.00 0.00 0.00 48 1016.6